FENGYUN 1C DEB

Satellite information

Favourite Embed

Satellite Type and Status

DEBRISIN ORBIT

Key statistics

Satellite FENGYUN 1C DEB at a glance.

Uptime

9495

Days in orbit

Revolutions

≈ 14.3

Per day

Orbit

SSO

Sun Synchronous Orbit

Inclination

99.0

Latest

Satellite identification and parameters

Extended collection of information and parameters for FENGYUN 1C DEB.

Object identification

Identified? True

Debris? True

Object name: FENGYUN 1C DEB

International designator: 1999-025CVW

Object number (NORAD): 32224

Object ID (CCSDS): 32224

Country: PEOPLES REPUBLIC OF CHINA (PRC)

Current information (Y/N): Y

RCS size: SMALL

Orbital parameters

Period: 100.449 minutes

Inclination: 98.959 deg

SMA: 7157.968 km

Apoapsis: 834.723 km

Periapsis: 724.943 km

RAAN: 70.3285 deg

Eccentricy: 0.0076684

Argument of periapsis: 348.9671 deg

Mean anomaly: 10.9828 deg

Mean motion: 14.33567442 rev/day

Mean motion (dot): 0.00001233 rev/day2

B* drag term: 0.00044772 1/REarth

Two-line elements (TLE)

Creation date: May 8, 2025, 3:01 a.m.

Reference frame: TEME

Reference center: EARTH

Epoch: May 7, 2025, 7:25 a.m. UTC

TLE line 0: 0 FENGYUN 1C DEB

TLE line 1: 1 32224U 99025CVW 25127.30971876 .00001233 00000-0 44772-3 0 9992

TLE line 2: 2 32224 98.9590 70.3285 0076684 348.9671 10.9828 14.33567442925798

Live tracking on map

Real-time ground track for satellite FENGYUN 1C DEB.

In-orbit conjunctions

A list of the most updated potential collisions computed for object FENGYUN 1C DEB.

Target Orbit TCA Probability of collision Miss distance Type
SL-12 R/B(AUX MOTOR) LEO 2024-11-29 08:13:00 0.0001122548 442.0 (m) ROCKET BODY
CZ-6A DEB LEO 2024-11-05 15:47:45 0.0001573357 987.0 (m) DEBRIS
COSMOS 1269 LEO 2024-10-17 17:46:28 0.0002610253 198.0 (m) PAYLOAD

Associated space launch

Chinese polar orbiting meteorological satellite

FENGYUN 1C DEB was lifted into orbit during the mission ‘Long March 4B | Feng Yun 1C’, on board a Long March 4B space rocket.

The launch took place on May 10, 1999, 1:33 a.m. from Launch Complex 7.

For more information about the launch, click the button.

Launch to space Long March 4B | Feng Yun 1C
Long March 4B | Feng Yun 1C

Agency: N/A

Status: Launch Successful

Launch date: May 10, 1999, 1:33 a.m. UTC

Rocket: Long March 4B

Launch pad: Launch Complex 7

Location: Taiyuan Satellite Launch Center, People's Republic of China

...

Latest news about this satellite

There are no fresh news available about this satellite. Check back as we update our databases every day.


Newsletter sign-up

Weekly statistics, charts and insights to help you stay on top of the space industry.